Location: Red Deer
(52.2681°N, 113.8112°W)
Time: 15:49:13
(UTC-06:00)

Envisat - Pass Details

Date: 27 April 2024
Orbit: 762 x 764 km, 98.3° (Epoch: 27 May)

Event Time Altitude Azimuth Distance (km) Brightness Sun altitude
Rises 03:33:00 0° 28° (NNE) 3,240 7.9 -18.8°
Reaches altitude 10° 03:36:20 10° 51° (NE) 2,307 6.6 -18.5°
Maximum altitude 03:39:15 15° 86° (E) 1,961 5.6 -18.3°
Drops below altitude 10° 03:42:10 10° 121° (ESE) 2,296 5.5 -18.0°
Sets 03:45:27 0° 144° (SE) 3,215 6.0 -17.8°
